• In Uzbekistan
  • List of Countries
  • For 7 days
  • Water Temperature
  • Weather Map
  • Weather Widgets
  • user-avatar
    Login

    Hourly Weather San Cristóbal

    Today, 26 January, Sunday

    Time Temperature Precipitation Wind Pressure Humidity
    00:00 +19°C° 0.2 mm 0 mps 672 mmHg 93%
    01:00 +19°C° 0.2 mm 0 mps 672 mmHg 93%
    02:00 +19°C° 0.2 mm 0 mps 672 mmHg 93%
    03:00 +19°C° 0.2 mm 0 mps 672 mmHg 93%
    04:00 +19°C° 0.2 mm 0 mps 672 mmHg 93%
    05:00 +19°C° 0.1 mm 0 mps 672 mmHg 93%
    06:00 +19°C° 0.1 mm 0 mps 672 mmHg 93%
    07:00 +19°C° 0.1 mm 0 mps 673 mmHg 93%
    08:00 +20°C° 0.3 mm 0 mps 673 mmHg 88%
    09:00 +21°C° 0.3 mm 0 mps 674 mmHg 83%
    10:00 +25°C° 0.3 mm 1 mps 675 mmHg 78%
    11:00 +25°C° 0.2 mm 1 mps 674 mmHg 72%
    12:00 +26°C° 0.2 mm 1 mps 674 mmHg 66%
    13:00 +27°C° 0.2 mm 1 mps 673 mmHg 60%
    14:00 +27°C° 0.2 mm 1 mps 673 mmHg 63%
    15:00 +26°C° 0.2 mm 1 mps 672 mmHg 66%
    16:00 +26°C° 0.2 mm 1 mps 672 mmHg 70%
    17:00 +24°C° 0.1 mm 1 mps 672 mmHg 76%
    18:00 +23°C° 0.1 mm 1 mps 672 mmHg 82%
    19:00 +20°C° 0.1 mm 0 mps 672 mmHg 88%
    20:00 +19°C° 0.1 mm 0 mps 672 mmHg 88%
    21:00 +19°C° 0.1 mm 0 mps 672 mmHg 88%
    22:00 +19°C° 0.1 mm 0 mps 673 mmHg 89%
    23:00 +21°C° 0.1 mm 1 mps 672 mmHg 89%

    Tomorrow, 27 January, Monday

    Time Temperature Precipitation Wind Pressure Humidity
    00:00 +21°C° 0.1 mm 1 mps 672 mmHg 89%
    01:00 +21°C° 0.1 mm 1 mps 672 mmHg 89%
    02:00 +21°C° 0.2 mm 1 mps 672 mmHg 89%
    03:00 +21°C° 0.2 mm 1 mps 671 mmHg 89%
    04:00 +19°C° 0.2 mm 0 mps 671 mmHg 89%
    05:00 +19°C° 0.1 mm 0 mps 672 mmHg 89%
    06:00 +19°C° 0.1 mm 0 mps 672 mmHg 89%
    07:00 +19°C° 0.1 mm 0 mps 673 mmHg 89%
    08:00 +21°C° 0.1 mm 0 mps 674 mmHg 82%
    09:00 +25°C° 0.1 mm 1 mps 674 mmHg 74%
    10:00 +27°C° 0.1 mm 1 mps 675 mmHg 66%
    11:00 +27°C° 0.1 mm 1 mps 675 mmHg 62%
    12:00 +28°C° 0.1 mm 1 mps 674 mmHg 57%
    13:00 +29°C° 0.1 mm 2 mps 674 mmHg 53%
    14:00 +28°C° 0.2 mm 1 mps 673 mmHg 56%
    15:00 +28°C° 0.2 mm 1 mps 672 mmHg 59%
    16:00 +27°C° 0.2 mm 1 mps 672 mmHg 62%
    17:00 +26°C° 0.2 mm 1 mps 672 mmHg 71%
    18:00 +24°C° 0.2 mm 1 mps 672 mmHg 79%
    19:00 +22°C° 0.2 mm 1 mps 672 mmHg 88%
    20:00 +22°C° 0 mm 1 mps 672 mmHg 88%
    21:00 +21°C° 0 mm 1 mps 672 mmHg 89%
    22:00 +21°C° 0 mm 1 mps 672 mmHg 89%
    23:00 +21°C° 0 mm 1 mps 672 mmHg 89%

    Day after tomorrow, 28 January, Tuesday

    Time Temperature Precipitation Wind Pressure Humidity
    00:00 +21°C° 0 mm 1 mps 672 mmHg 88%
    01:00 +20°C° 0 mm 1 mps 672 mmHg 88%
    02:00 +20°C° 0 mm 1 mps 671 mmHg 88%
    03:00 +20°C° 0 mm 1 mps 671 mmHg 88%
    04:00 +20°C° 0 mm 1 mps 671 mmHg 88%
    05:00 +20°C° 0 mm 1 mps 672 mmHg 86%
    06:00 +21°C° 0 mm 1 mps 672 mmHg 85%
    07:00 +19°C° 0 mm 0 mps 673 mmHg 84%
    08:00 +23°C° 0.1 mm 1 mps 673 mmHg 76%
    09:00 +25°C° 0.1 mm 1 mps 674 mmHg 69%
    10:00 +27°C° 0.1 mm 1 mps 675 mmHg 62%
    11:00 +28°C° 0.2 mm 1 mps 674 mmHg 59%
    12:00 +28°C° 0.2 mm 1 mps 673 mmHg 56%
    13:00 +29°C° 0.2 mm 1 mps 673 mmHg 54%
    14:00 +28°C° 0.2 mm 1 mps 672 mmHg 57%
    15:00 +28°C° 0.2 mm 1 mps 672 mmHg 61%
    16:00 +27°C° 0.2 mm 1 mps 671 mmHg 64%
    17:00 +25°C° 0.2 mm 1 mps 671 mmHg 72%
    18:00 +24°C° 0.2 mm 1 mps 671 mmHg 80%
    19:00 +20°C° 0.2 mm 0 mps 671 mmHg 87%
    20:00 +22°C° 0.1 mm 1 mps 671 mmHg 88%
    21:00 +22°C° 0.1 mm 1 mps 671 mmHg 89%
    22:00 +21°C° 0.1 mm 1 mps 672 mmHg 90%
    23:00 +21°C° 0.1 mm 1 mps 671 mmHg 90%

    29 January, Wednesday

    Time Temperature Precipitation Wind Pressure Humidity
    00:00 +21°C° 0.1 mm 1 mps 671 mmHg 90%
    01:00 +21°C° 0.1 mm 1 mps 671 mmHg 90%
    02:00 +21°C° 0.1 mm 1 mps 671 mmHg 89%
    03:00 +20°C° 0.1 mm 1 mps 671 mmHg 89%
    04:00 +20°C° 0.1 mm 1 mps 671 mmHg 88%
    05:00 +20°C° 0 mm 1 mps 671 mmHg 87%
    06:00 +21°C° 0 mm 1 mps 672 mmHg 85%
    07:00 +21°C° 0 mm 1 mps 672 mmHg 84%
    08:00 +23°C° 0.1 mm 1 mps 673 mmHg 77%
    09:00 +25°C° 0.1 mm 1 mps 674 mmHg 70%
    10:00 +27°C° 0.1 mm 1 mps 674 mmHg 62%
    11:00 +28°C° 0.2 mm 1 mps 674 mmHg 62%
    12:00 +28°C° 0.2 mm 1 mps 673 mmHg 62%
    13:00 +28°C° 0.2 mm 1 mps 672 mmHg 62%
    14:00 +27°C° 0.3 mm 1 mps 672 mmHg 66%
    15:00 +27°C° 0.3 mm 1 mps 671 mmHg 69%
    16:00 +26°C° 0.3 mm 1 mps 671 mmHg 73%
    17:00 +25°C° 0.5 mm 1 mps 671 mmHg 78%
    18:00 +23°C° 0.5 mm 1 mps 671 mmHg 84%
    19:00 +22°C° 0.5 mm 1 mps 671 mmHg 90%
    20:00 +22°C° 0.2 mm 1 mps 671 mmHg 90%
    21:00 +22°C° 0.2 mm 1 mps 671 mmHg 90%
    22:00 +21°C° 0.2 mm 1 mps 672 mmHg 90%
    23:00 +21°C° 0.1 mm 1 mps 671 mmHg 90%

    30 January, Thursday

    Time Temperature Precipitation Wind Pressure Humidity
    00:00 +21°C° 0.1 mm 1 mps 671 mmHg 90%
    01:00 +21°C° 0.1 mm 1 mps 671 mmHg 90%
    02:00 +21°C° 0 mm 1 mps 671 mmHg 90%
    03:00 +21°C° 0 mm 1 mps 671 mmHg 90%
    04:00 +19°C° 0 mm 0 mps 671 mmHg 90%
    05:00 +19°C° 0 mm 0 mps 671 mmHg 90%
    06:00 +19°C° 0 mm 0 mps 672 mmHg 90%
    07:00 +19°C° 0 mm 0 mps 672 mmHg 89%
    08:00 +21°C° 0.2 mm 0 mps 673 mmHg 84%
    09:00 +24°C° 0.2 mm 1 mps 673 mmHg 78%
    10:00 +25°C° 0.2 mm 1 mps 674 mmHg 73%
    11:00 +26°C° 0.1 mm 1 mps 673 mmHg 66%
    12:00 +28°C° 0.1 mm 1 mps 673 mmHg 60%
    13:00 +29°C° 0.1 mm 2 mps 673 mmHg 54%
    14:00 +28°C° 0.2 mm 2 mps 672 mmHg 57%
    15:00 +28°C° 0.2 mm 1 mps 671 mmHg 60%
    16:00 +27°C° 0.2 mm 1 mps 671 mmHg 63%
    17:00 +25°C° 0.1 mm 1 mps 671 mmHg 70%
    18:00 +24°C° 0.1 mm 1 mps 671 mmHg 77%
    19:00 +20°C° 0.1 mm 0 mps 671 mmHg 85%
    20:00 +22°C° 0 mm 1 mps 671 mmHg 84%
    21:00 +21°C° 0 mm 1 mps 671 mmHg 83%
    22:00 +21°C° 0 mm 1 mps 671 mmHg 82%
    23:00 +21°C° 0 mm 1 mps 671 mmHg 81%

    31 January, Friday

    Time Temperature Precipitation Wind Pressure Humidity
    00:00 +21°C° 0 mm 1 mps 671 mmHg 80%
    01:00 +21°C° 0 mm 1 mps 671 mmHg 79%
    02:00 +21°C° 0 mm 1 mps 671 mmHg 80%
    03:00 +20°C° 0 mm 1 mps 671 mmHg 81%
    04:00 +20°C° 0 mm 1 mps 670 mmHg 82%
    05:00 +20°C° 0 mm 1 mps 671 mmHg 80%
    06:00 +21°C° 0 mm 1 mps 672 mmHg 78%
    07:00 +21°C° 0 mm 1 mps 672 mmHg 75%
    08:00 +23°C° 0 mm 2 mps 673 mmHg 67%
    09:00 +25°C° 0 mm 2 mps 674 mmHg 59%
    10:00 +28°C° 0 mm 2 mps 674 mmHg 50%
    11:00 +28°C° 0 mm 3 mps 674 mmHg 48%
    12:00 +29°C° 0 mm 3 mps 673 mmHg 45%
    13:00 +30°C° 0 mm 3 mps 673 mmHg 42%
    14:00 +30°C° 0 mm 2 mps 672 mmHg 44%
    15:00 +29°C° 0 mm 2 mps 672 mmHg 45%
    16:00 +29°C° 0 mm 2 mps 671 mmHg 46%
    17:00 +27°C° 0 mm 2 mps 671 mmHg 55%
    18:00 +24°C° 0 mm 1 mps 671 mmHg 64%
    19:00 +22°C° 0 mm 1 mps 671 mmHg 73%
    20:00 +22°C° 0 mm 1 mps 671 mmHg 71%
    21:00 +21°C° 0 mm 1 mps 671 mmHg 70%
    22:00 +21°C° 0 mm 1 mps 672 mmHg 68%
    23:00 +21°C° 0 mm 1 mps 672 mmHg 69%
    Show more